Weather in Barguzin

Russia / Republic of Buryatia     53°36′59″N   109°37′47″E
temp.,
°C
wind,
m/s
gust,
m/s
humid.,
%
clouds,
%
prec.,
mm/h
press.,
hPa
HPBL,
m
9 may, sun
sun923:00+1ssw366843 0.0 1012120
02:00+2sw3566100 0.0 1012143
05:000sw237499 0.1 101244
08:00+5wsw3662100 0.1 1011661
11:00+7wsw4559100 0.0 10101074
14:00+9wsw565499 0.2 10081467
17:00+8wsw555940 0.1 10081069
20:00+4sw248419 0.1 1010102
10 may, mon
mon1023:00+1ssw2292100 0.0 101129
02:00+1sse119099 0.0 101010
05:00+1sw119072 0.0 101010
08:00+4w1177100 0.0 1011414
11:00+7w326493 0.1 10101036
14:00+6wsw4574100 0.1 1011683
17:00+5wsw457696 0.0 1012628
20:00+3sw358893 0.0 1014455
11 may, tue
tue1123:00+1sw249597 0.0 1015169
02:000sw249663 0.0 101592
05:00−1sw239625 0.0 101573
08:00+3wsw337951 0.0 1015512
11:00+5wsw447071 0.0 1014774
14:00+8wsw565937 0.0 10131060
17:00+9wsw67519 0.0 10111109
20:00+4sw58755 0.0 1014424
12 may, wed
wed1223:000sw36897 0.0 1015141
02:00−1sw359436 0.0 1016107
05:00−2sw359511 0.0 101695
08:00+4wsw35657 0.0 1014662
11:00+8wsw564021 0.0 10111258
14:00+10w673044 0.0 10091616
17:00+9w573573 0.0 10091298
20:00+5sw465232 0.0 1011190
13 may, thu
thu1323:000ssw236513 0.0 101352
02:00−1sw23666 0.0 101350
05:00−2sw22680 0.0 101429
08:00+4w22460 0.0 1013641
11:00+8w343140 0.0 10112390
14:00+9wnw762431 0.0 10102805
17:00+8nw55220 0.0 10112109
20:00+4w24380 0.0 101481